| time (UTC) | temp F | wind direction | speed MPH | gust MPH | rain 1hr in | rain 24hr in | rain mn in | humidity % | barometer mb |
| 20260508121500 | 69 | 23 | 1.0 | 5.0 | 0.00 | 0.00 | 0.00 | 93 | 1011.2 |
| 20260508120100 | 69 | 31 | 1.0 | 7.0 | 0.00 | 0.00 | 0.00 | 93 | 1010.8 |
| 20260508114600 | 70 | 68 | 0.0 | 5.0 | 0.00 | 0.00 | 0.00 | 93 | 1010.8 |
| 20260508113110 | 70 | 17 | 2.0 | 5.0 | 0.00 | 0.00 | 0.00 | 93 | 1011.0 |
| 20260508111607 | 69 | 26 | 1.0 | 4.0 | 0.00 | 0.00 | 0.00 | 93 | 1011.3 |
| 20260508110101 | 69 | 39 | 1.0 | 3.0 | 0.00 | 0.00 | 0.00 | 93 | 1011.2 |
| 20260508104556 | 69 | 63 | 0.0 | 5.0 | 0.00 | 0.00 | 0.00 | 93 | 1010.4 |
| 20260508103100 | 70 | 71 | 0.0 | 3.0 | 0.00 | 0.00 | 0.00 | 92 | 1010.7 |
| 20260508101559 | 71 | 34 | 3.0 | 7.0 | 0.00 | 0.00 | 0.00 | 92 | 1010.9 |
| 20260508100048 | 72 | 56 | 0.0 | 1.0 | 0.00 | 0.00 | 0.00 | 94 | 1010.7 |
| 20260508094548 | 72 | 56 | 0.0 | 1.0 | 0.00 | 0.00 | 0.00 | 94 | 1011.0 |
| 20260508093047 | 72 | 56 | 0.0 | 1.0 | 0.00 | 0.00 | 0.00 | 94 | 1010.9 |
| 20260508091554 | 72 | 56 | 0.0 | 1.0 | 0.00 | 0.00 | 0.00 | 93 | 1010.9 |
| 20260508090100 | 72 | 56 | 0.0 | 0.0 | 0.00 | 0.00 | 0.00 | 92 | 1010.9 |
| 20260508084543 | 72 | 56 | 0.0 | 1.0 | 0.00 | 0.00 | 0.00 | 92 | 1010.8 |
| 20260508083042 | 73 | 56 | 0.0 | 1.0 | 0.00 | 0.00 | 0.00 | 90 | 1010.9 |
| 20260508081540 | 73 | 340 | 0.0 | 0.0 | 0.00 | 0.00 | 0.00 | 89 | 1011.1 |
| 20260508080038 | 73 | 51 | 0.0 | 2.0 | 0.00 | 0.00 | 0.00 | 89 | 1011.1 |
| 20260508074542 | 73 | 348 | 0.0 | 4.0 | 0.00 | 0.00 | 0.00 | 87 | 1010.9 |
| 20260508073036 | 74 | 30 | 0.0 | 1.0 | 0.00 | 0.00 | 0.00 | 87 | 1011.2 |
| 20260508071546 | 74 | 30 | 0.0 | 1.0 | 0.00 | 0.00 | 0.00 | 88 | 1011.5 |
| 20260508070035 | 74 | 30 | 0.0 | 2.0 | 0.00 | 0.00 | 0.00 | 88 | 1011.4 |
| 20260508064537 | 74 | 25 | 0.0 | 2.0 | 0.00 | 0.00 | 0.00 | 87 | 1010.9 |
| 20260508063032 | 74 | 56 | 0.0 | 2.0 | 0.00 | 0.00 | 0.00 | 88 | 1011.0 |
| 20260508061532 | 74 | 21 | 0.0 | 2.0 | 0.00 | 0.00 | 0.00 | 87 | 1011.7 |
| 20260508060034 | 74 | 21 | 0.0 | 1.0 | 0.00 | 0.00 | 0.00 | 87 | 1011.6 |
| 20260508054529 | 74 | 73 | 0.0 | 2.0 | 0.00 | 0.00 | 0.00 | 87 | 1011.4 |
| 20260508053043 | 74 | 48 | 0.0 | 2.0 | 0.00 | 0.00 | 0.00 | 86 | 1010.9 |
| 20260508051525 | 74 | 25 | 0.0 | 1.0 | 0.00 | 0.00 | 0.00 | 86 | 1011.0 |
| 20260508050023 | 74 | 359 | 0.0 | 4.0 | 0.00 | 0.00 | 0.00 | 86 | 1011.1 |
| 20260508044622 | 74 | 55 | 0.0 | 2.0 | 0.00 | 0.00 | 0.00 | 85 | 1010.7 |
| 20260508043022 | 74 | 36 | 0.0 | 1.0 | 0.00 | 0.00 | 0.00 | 85 | 1011.3 |
| 20260508041538 | 74 | 353 | 0.0 | 1.0 | 0.00 | 0.00 | 0.00 | 84 | 1011.9 |
| 20260508040025 | 74 | 51 | 0.0 | 2.0 | 0.00 | 0.00 | 0.00 | 84 | 1012.6 |
| 20260508034523 | 74 | 59 | 0.0 | 2.0 | 0.00 | 0.00 | 0.00 | 84 | 1012.6 |
| 20260508033021 | 74 | 23 | 0.0 | 2.0 | 0.00 | 0.00 | 0.00 | 85 | 1012.3 |
| 20260508031518 | 74 | 23 | 0.0 | 2.0 | 0.00 | 0.00 | 0.00 | 84 | 1012.1 |
| 20260508030024 | 74 | 11 | 0.0 | 1.0 | 0.00 | 0.00 | 0.00 | 83 | 1012.1 |
| 20260508024519 | 74 | 11 | 0.0 | 3.0 | 0.00 | 0.00 | 0.00 | 82 | 1012.2 |
| 20260508023018 | 75 | 37 | 0.0 | 4.0 | 0.00 | 0.00 | 0.00 | 82 | 1012.0 |
| 20260508021518 | 75 | 34 | 0.0 | 6.0 | 0.00 | 0.00 | 0.00 | 82 | 1012.4 |
| 20260508020025 | 75 | 22 | 2.0 | 8.0 | 0.00 | 0.00 | 0.00 | 82 | 1011.8 |
| 20260508014515 | 76 | 35 | 3.0 | 9.0 | 0.00 | 0.00 | 0.00 | 82 | 1012.1 |
| 20260508013016 | 76 | 9 | 2.0 | 8.0 | 0.00 | 0.00 | 0.00 | 83 | 1012.0 |
| 20260508011516 | 76 | 27 | 4.0 | 8.0 | 0.00 | 0.00 | 0.00 | 83 | 1011.7 |
| 20260508010014 | 76 | 17 | 3.0 | 7.0 | 0.00 | 0.00 | 0.00 | 83 | 1011.7 |
| 20260508004515 | 75 | 38 | 1.0 | 7.0 | 0.00 | 0.00 | 0.00 | 83 | 1011.6 |
| 20260508003013 | 76 | 35 | 2.0 | 7.0 | 0.00 | 0.00 | 0.00 | 82 | 1011.4 |
| 20260508001513 | 76 | 8 | 3.0 | 8.0 | 0.00 | 0.00 | 0.00 | 82 | 1011.5 |
| 20260508000012 | 77 | 29 | 3.0 | 7.0 | 0.00 | 0.00 | 0.00 | 81 | 1011.5 |
| 20260507234512 | 78 | 92 | 0.0 | 7.0 | 0.00 | 0.00 | 0.00 | 80 | 1011.2 |
| 20260507233023 | 78 | 37 | 0.0 | 6.0 | 0.00 | 0.00 | 0.00 | 81 | 1011.4 |
| 20260507231509 | 78 | 32 | 1.0 | 8.0 | 0.00 | 0.00 | 0.00 | 82 | 1011.5 |
| 20260507230009 | 78 | 105 | 1.0 | 4.0 | 0.00 | 0.00 | 0.00 | 81 | 1011.5 |
| 20260507224509 | 78 | 85 | 3.0 | 12.0 | 0.00 | 0.00 | 0.00 | 81 | 1011.6 |
| 20260507223007 | 79 | 18 | 4.0 | 8.0 | 0.00 | 0.00 | 0.00 | 79 | 1011.4 |
| 20260507221507 | 79 | 32 | 0.0 | 5.0 | 0.00 | 0.00 | 0.00 | 81 | 1011.4 |
| 20260507220006 | 79 | 115 | 0.0 | 3.0 | 0.00 | 0.00 | 0.00 | 78 | 1011.6 |
| 20260507214506 | 80 | 30 | 2.0 | 6.0 | 0.00 | 0.00 | 0.00 | 79 | 1011.4 |
| 20260507213010 | 78 | 20 | 1.0 | 9.0 | 0.00 | 0.00 | 0.00 | 81 | 1011.6 |
| 20260507211503 | 78 | 51 | 3.0 | 12.0 | 0.00 | 0.00 | 0.00 | 80 | 1011.8 |
| 20260507210004 | 79 | 358 | 6.0 | 8.0 | 0.00 | 0.00 | 0.00 | 79 | 1011.9 |
| 20260507204600 | 78 | 19 | 3.0 | 8.0 | 0.00 | 0.00 | 0.00 | 81 | 1012.1 |
| 20260507203058 | 77 | 23 | 3.0 | 9.0 | 0.00 | 0.00 | 0.00 | 82 | 1012.3 |
| 20260507201555 | 76 | 20 | 4.0 | 10.0 | 0.00 | 0.00 | 0.00 | 84 | 1012.4 |
| 20260507200054 | 75 | 340 | 4.0 | 12.0 | 0.00 | 0.00 | 0.00 | 83 | 1012.7 |
| 20260507194617 | 74 | 353 | 6.0 | 9.0 | 0.00 | 0.00 | 0.00 | 84 | 1012.7 |
| 20260507193051 | 73 | 34 | 3.0 | 7.0 | 0.00 | 0.00 | 0.00 | 82 | 1013.0 |
| 20260507191551 | 73 | 40 | 3.0 | 9.0 | 0.00 | 0.00 | 0.00 | 83 | 1013.2 |
| 20260507190054 | 72 | 19 | 6.0 | 12.0 | 0.00 | 0.00 | 0.00 | 83 | 1013.3 |
| 20260507184551 | 71 | 359 | 5.0 | 10.0 | 0.00 | 0.00 | 0.00 | 83 | 1013.3 |
| 20260507183050 | 71 | 333 | 5.0 | 10.0 | 0.00 | 0.00 | 0.00 | 82 | 1013.4 |
| 20260507181555 | 71 | 25 | 5.0 | 11.0 | 0.00 | 0.00 | 0.00 | 83 | 1013.6 |
| 20260507180048 | 70 | 14 | 4.0 | 11.0 | 0.00 | 0.00 | 0.00 | 84 | 1013.7 |
| 20260507174556 | 69 | 3 | 8.0 | 12.0 | 0.00 | 0.00 | 0.00 | 85 | 1013.8 |
| 20260507173116 | 68 | 345 | 5.0 | 10.0 | 0.00 | 0.00 | 0.00 | 85 | 1014.0 |
| 20260507171549 | 67 | 9 | 6.0 | 10.0 | 0.00 | 0.00 | 0.00 | 87 | 1014.1 |
| 20260507170055 | 67 | 20 | 4.0 | 9.0 | 0.00 | 0.00 | 0.00 | 87 | 1014.1 |
| 20260507164553 | 67 | 15 | 5.0 | 9.0 | 0.00 | 0.00 | 0.00 | 87 | 1014.0 |
| 20260507163047 | 66 | 11 | 8.0 | 13.0 | 0.00 | 0.00 | 0.00 | 88 | 1014.2 |
| 20260507161559 | 66 | 13 | 6.0 | 13.0 | 0.00 | 0.00 | 0.00 | 87 | 1014.1 |
| 20260507160042 | 66 | 16 | 8.0 | 13.0 | 0.00 | 0.00 | 0.00 | 88 | 1014.0 |
| 20260507154543 | 66 | 7 | 7.0 | 15.0 | 0.00 | 0.00 | 0.00 | 88 | 1014.0 |
| 20260507153042 | 66 | 18 | 7.0 | 10.0 | 0.00 | 0.00 | 0.00 | 88 | 1014.1 |
| 20260507151539 | 66 | 18 | 6.0 | 12.0 | 0.00 | 0.00 | 0.00 | 88 | 1014.1 |
| 20260507150038 | 65 | 26 | 8.0 | 14.0 | 0.00 | 0.00 | 0.00 | 89 | 1014.0 |
| 20260507144539 | 66 | 15 | 8.0 | 13.0 | 0.00 | 0.00 | 0.00 | 89 | 1013.9 |
| 20260507143039 | 66 | 34 | 7.0 | 12.0 | 0.00 | 0.00 | 0.00 | 89 | 1013.5 |
| 20260507141541 | 65 | 9 | 7.0 | 12.0 | 0.00 | 0.00 | 0.00 | 89 | 1013.6 |
| 20260507140037 | 65 | 23 | 9.0 | 17.0 | 0.00 | 0.00 | 0.00 | 89 | 1013.6 |
| 20260507134533 | 66 | 31 | 9.0 | 14.0 | 0.00 | 0.00 | 0.00 | 89 | 1013.8 |
| 20260507133030 | 66 | 11 | 9.0 | 12.0 | 0.00 | 0.00 | 0.00 | 90 | 1013.9 |
| 20260507131531 | 66 | 353 | 8.0 | 15.0 | 0.00 | 0.00 | 0.00 | 88 | 1013.9 |
| 20260507130025 | 67 | 15 | 7.0 | 11.0 | 0.00 | 0.00 | 0.00 | 89 | 1013.5 |
| 20260507124520 | 67 | 9 | 7.0 | 11.0 | 0.00 | 0.00 | 0.00 | 89 | 1013.2 |
| 20260507123016 | 68 | 1 | 6.0 | 9.0 | 0.00 | 0.00 | 0.00 | 89 | 1012.8 |